Погода в Дубровице

Украина / Ровненская область     51°34′33″N   26°33′34″E
темп.,
°C
ветер,
м/с
пор.,
м/с
влажн.,
%
обл.,
%
осадки,
мм/ч
давл.,
гПа
погр.,
м
13 мая, чт
чт1300:00+8ююв33805 0.0 101240
03:00+7ю3485100 0.0 101065
06:00+6ююв358871 0.0 100892
09:00+11ююв467072 0.0 1007541
12:00+15ююв5752100 0.0 10051652
15:00+15ю8969100 0.1 10041128
18:00+13ююв6976100 0.0 1004907
21:00+12юв51285100 0.4 1003505
14 мая, пт
пт1400:00+13ю7129098 0.9 1003686
03:00+11ююв51194100 0.9 1004412
06:00+9ююв5109778 0.0 1004304
09:00+12ююв4689100 0.0 1004331
12:00+16ю4669100 0.0 1004938
15:00+19ююз5760100 0.6 10041737
18:00+16юз367875 1.4 1004328
21:00+12зюз488910 2.2 1005166
15 мая, сб
сб1500:00+9юз369635 0.0 1006138
03:00+8ююз369761 0.0 1006116
06:00+11юз3698100 0.0 1007197
09:00+12з4793100 0.1 1008317
12:00+15з457599 0.0 1009884
15:00+17зюз567065 0.9 10101172
18:00+17зюз566532 0.3 1010985
21:00+12сз128018 0.3 101110
16 мая, вс
вс1600:00+10ю22865 0.0 101110
03:00+9ююз2289100 0.0 101218
06:00+9ююв2289100 0.0 101236
09:00+14юв4673100 0.0 1012328
12:00+19ююв5654100 0.0 10111050
15:00+21ю5656100 0.2 10101496
18:00+19ююв697283 0.9 1008887
21:00+15юв41087100 1.3 1008209
17 мая, пн
пн1700:00+13ююз2292100 0.3 100837
03:00+13ю3696100 0.9 1008171
06:00+12зюз2497100 0.9 1008183
09:00+13зсз3494100 1.9 1009266
12:00+14зсз348491 0.4 1009437
15:00+17зсз236897 0.9 1008920
18:00+19зсз345895 0.1 10081469
21:00+13ссв12760 0.1 100811